Volver al catálogo

STARLINK-35294

ActivoComunicacionesVLEO
NORAD 65755·PAYLOAD·🇺🇸 United States

Lanzado Sep 25, 2025 desde Cape Canaveral Space Force Station

Loading…

Próximos Pases (próximas 24 horas)

TLE

ActualizadoSource: CelesTrak SupGP

Época: Sep 15, 2026, 02:41 UTC

1 65755C 25216X   26258.11229167 -.00056724  00000+0 -16760-2 0  2581
2 65755  53.1572 170.9695 0001301  89.1750 293.1665 15.34416792    10

Sigue STARLINK-35294 en tiempo real con AllMySat

Download on the App Store